Regional Weather Roundup
Issued by NWS

Home | Current Version | Previous Version | Text Only | Print | Product List | Glossary On
Versions: 1 2 3 4 5 6 7 8 9 10 11 12 13 14 15 16 17 18 19 20 21 22 23 24 25 26 27 28 29 30 31 32 33 34 35 36 37 38 39 40 41 42 43 44 45 46 47 48 49 50
000
ASUS43 KMKX 281411
RWRWI

WISCONSIN REGIONAL WEATHER ROUNDUP
NATIONAL WEATHER SERVICE MILWAUKEE/SULLIVAN WI
900 AM CDT MON JUL 28 2014

NOTE: "FAIR" INDICATES FEW OR NO CLOUDS BELOW 12,000 FEET WITH NO
SIGNIFICANT WEATHER AND/OR OBSTRUCTIONS TO VISIBILITY.

WIZ001-002-006>008-014>016-023>028-281500-
NORTHWEST WISCONSIN

CITY           SKY/WX    TMP DP  RH WIND       PRES   REMARKS
SUPERIOR ARPT  SUNNY     66  56  68 NW5       30.17S
ASHLAND        PTSUNNY   63  57  81 VRB3      30.16R
HAYWARD        CLOUDY    55  55 100 CALM      30.18S
SIREN          CLOUDY    60  57  89 NW5       30.20R
RICE LAKE      CLOUDY    61  56  84 CALM      30.20S
LADYSMITH      CLOUDY    59  54  82 NW6       30.19R
EAU CLAIRE     PTSUNNY   66  55  67 NW3       30.17S
MENOMONIE      CLOUDY    63  58  83 CALM      30.19R
NEW RICHMOND   CLOUDY    62  58  87 NW3       30.20S
OSCEOLA        CLOUDY    62  59  92 NW3       30.22S
$$

WIZ003>005-009-010-017-018-281500-
NORTH CENTRAL WISCONSIN

CITY           SKY/WX    TMP DP  RH WIND       PRES   REMARKS
WOODRUFF       PTSUNNY   61  56  84 NW8       30.14R
RHINELANDER    PTSUNNY   57  51  80 W7        30.14S
EAGLE RIVER    SUNNY     59  52  77 NW7       30.12S
LAND O LAKES   SUNNY     61  52  72 NW9       30.13S
PHILLIPS       MOSUNNY   58  53  83 CALM      30.16S
TOMAHAWK       MOSUNNY   57  52  85 NW6       30.16R
MEDFORD        MOSUNNY   58  51  77 NW10      30.16S
MERRILL        CLOUDY    58  53  84 NW5       30.14S
$$

WIZ029-030-035-036-043>047-281500-
CENTRAL WISCONSIN

CITY           SKY/WX    TMP DP  RH WIND       PRES   REMARKS
WAUSAU         MOSUNNY   58  51  78 NW8       30.13S
MOSINEE        MOSUNNY   59  54  82 NW5       30.15S
MARSHFIELD     SUNNY     61  52  72 NW9       30.15R
STEVENS POINT  SUNNY     58  49  73 N8        30.14S
WAUPACA        SUNNY     62  51  68 N6        30.13S
WAUTOMA        SUNNY     62  50  65 N8        30.14R
WISC RAPIDS    SUNNY     61  50  67 MISG      30.16R
CAMP DOUGLAS   PTSUNNY   61  55  82 NW8       30.16R
$$

WIZ011>013-019>022-031-037>040-048>050-281500-
NORTHEAST WISCONSIN

CITY           SKY/WX    TMP DP  RH WIND       PRES   REMARKS
ANTIGO         CLOUDY    58  52  82 NW9       30.13S
STURGEON BAY   SUNNY     55  43  62 N17       30.10R
GREEN BAY      SUNNY     59  46  62 N13       30.11R
MANITOWOC      SUNNY     59  46  62 N14       30.08R
APPLETON       MOSUNNY   57  46  67 N15       30.12R
CLINTONVILLE   MOSUNNY   59  50  72 N6        30.12R
OSHKOSH        SUNNY     59  47  64 N10G21    30.12R
$$

WIZ032>034-041-042-053>061-281500-
SOUTHWEST WISCONSIN

CITY           SKY/WX    TMP DP  RH WIND       PRES   REMARKS
LA CROSSE      NOT AVBL
SPARTA         SUNNY     61  52  72 N6        30.18R
VIROQUA        FAIR      61  54  76 N7        30.18R
BOSCOBEL       SUNNY     67  52  58 VRB5      30.17R
PRAIRIE DU CHI SUNNY     64  51  63 NW14G20   30.17R
PLATTEVILLE    FAIR      62  53  71 N12       30.16S
$$

WIZ056-057-062-063-064-067-068-281500-
SOUTH CENTRAL WISCONSIN

CITY           SKY/WX    TMP DP  RH WIND       PRES   REMARKS
BARABOO/DELLS  SUNNY     61  49  65 N3        30.14R
LONE ROCK      SUNNY     66  51  58 NW6       30.15R
WATERTOWN      SUNNY     58  49  70 N16G23    30.11R
MADISON        MOSUNNY   62  51  67 N12       30.13R
MIDDLETON      FAIR      62  50  63 N3        30.14R
MONROE         SUNNY     61  50  67 N8G18     30.13R
JANESVILLE     SUNNY     63  46  55 N9        30.10R
$$

WIZ051-052-058>065-066-070>072-281500-
SOUTHEAST WISCONSIN

CITY           SKY/WX    TMP DP  RH WIND       PRES   REMARKS
MILWAUKEE      MOSUNNY   59  44  57 N17G29    30.08R
WAUKESHA       NOT AVBL
MILWAUKEE/TIMM SUNNY     59  45  58 N14G20    30.09R
RACINE         MOSUNNY   59  47  64 N21G29    30.09R
BURLINGTON     MOSUNNY   58  47  67 N13G24    30.09R
KENOSHA        SUNNY     59  46  62 N12G21    30.08R
FOND DU LAC    SUNNY     59  48  67 N13       30.12R
SHEBOYGAN      SUNNY     58  47  66 N13       30.08R
WEST BEND      SUNNY     59  43  55 N15       30.09R
JUNEAU         SUNNY     57  46  66 N14G20    30.12R
$$

LSZ147-162-281500-
LAKE SUPERIOR

STATION/POSITION TIME  TEMP    WIND        PRES    WAVE
                       AIR SEA DIR/SP/G            HT/PER
                 (UTC) (F)     (DEG/KT/KT) (MB)    (FT/S)
W MID LAKE BUOY  1350   48 43  300/  8/  8 1019.8R   0
PORT WING        1300   58     170/  3/  6 1021.3R
SAXON HARBOR     1300           CALM  /  4 1020.7R
$$

LMZ867-665-643>646-281500-
LAKE MICHIGAN

STATION/POSITION TIME  TEMP    WIND        PRES    WAVE
                       AIR SEA DIR/SP/G            HT/PER
                 (UTC) (F)     (DEG/KT/KT) (MB)    (FT/S)
N MID LAKE BUOY  1350   53 53  350/ 16/ 19 1017.4R   4/ 5
NORTHPORT PIER   1300   55     360/ 16/ 19 1018.3R
SISTER BAY       1310   58     350/ 14/ 19   N/A
KEWAUNEE LAKESHO 1300   55     330/  9/ 15 1018.6R
SHEBOYGAN LAKESH 1400   54     350/ 11/ 12 1019.0R
PORT WASHINGTON  1300   58     350/ 10/ 19 1018.6R
ATWATER BUOY     1400   58     360/ 19     1019.3R
MILWAUKEE LAKESH 1300   57     350/ 13/ 19   N/A
S MID LAKE BUOY  1350   56 59  340/ 21/ 27 1016.4R   8/ 7
KENOSHA   LAKESH 1400   58     360/ 20/ 22 1017.9R
$$

TC  - TEMPERATURE IN CELSIUS
VSB - VISIBILITY IN STATUTE MILES
WCI - WIND CHILL INDEX
HX  - HEAT INDEX




USA.gov is the U.S. government's official web portal to all federal, state and local government web resources and services.